sat.trackr.live / text

‹ back to catalog

STARLINK-11571 [DTC]

NORAD 62986 · 2025-031F

PAYLOAD ACTIVE UNKNOWN

§ Identity

Operator
Country
US
Launch date
2025-02-11
Launch site
AFETR
Launch vehicle
Mass (kg)
RCS (m²)

Purposes: comms

External: N2YO · Heavens-Above · Gunter

§ Orbital elements

Epoch: 2026-09-21T16:40:27.583680Z

Period
91.67 min
Inclination
42.9988°
Eccentricity
0.0001204
Mean motion
15.70893243 rev/d
Perigee alt
355.5 km
Apogee alt
357.2 km
Semi-major
6,734.5 km
B*
1.3560e-3
RAAN
259.5832°
Arg perigee
286.3014°
Mean anomaly
73.7722°
Rev number
9,357

§ Raw data

STARLINK-11571 [DTC]1 62986U 25031F   26264.69476370  .00177709  00000+0  13560-2 0  99912 62986  42.9988 259.5832 0001204 286.3014  73.7722 15.70893243 93572

JSON: /api/v1/satellites/62986 · /tle

For live sub-satellite position, see the globe view (requires WebGL).

§ Visibility from observer

Set your observer location to see the next 7 days of passes ≥ 10°. The values pass through the URL so the page stays shareable.

No JS? Fill the form by hand. The geolocation button needs JavaScript.